Regional Weather Roundup
Issued by NWS

Home | Current Version | Previous Version | Graphics & Text | Print | Product List | Glossary On
Versions: 1 2 3 4 5 6 7 8 9 10 11 12 13 14 15 16 17 18 19 20 21 22 23 24 25 26 27 28 29 30 31 32 33 34 35 36 37 38 39 40 41 42 43 44 45 46 47 48 49 50
000
ASUS43 KLOT 270721
RWRIL

ILLINOIS REGIONAL WEATHER ROUNDUP
NATIONAL WEATHER SERVICE CHICAGO/ROMEOVILLE IL
200 AM CDT FRI MAR 27 2015

NOTE: "FAIR" INDICATES FEW OR NO CLOUDS BELOW 12,000 FEET WITH NO
SIGNIFICANT WEATHER AND/OR OBSTRUCTIONS TO VISIBILITY.

* THESE STATIONS ARE NOT UNDER NWS QUALITY CONTROL. THEY ALSO MAY NOT
  REPORT WEATHER SUCH AS PRECIPITATION OR FOG.

ILZ001-002-007-009-015-016-024-270800-
NORTHWEST ILLINOIS

CITY           SKY/WX    TMP DP  RH WIND       PRES   REMARKS
MOLINE         CLOUDY    31  21  66 NW9       30.11F WCI  23
STERLING*      CLOUDY    30  19  64 N7        30.11S WCI  23
SAVANNA*       CLOUDY    32  19  58 N7        30.13R WCI  26
$$

ILZ003-004-008-010-011-017-018-270800-
NORTH CENTRAL ILLINOIS

CITY           SKY/WX    TMP DP  RH WIND       PRES   REMARKS
ROCKFORD       PTCLDY    29  14  53 N10       30.12S WCI  20
FREEPORT*      PTCLDY    27  17  67 N6        30.13S WCI  20
ROCHELLE*      CLOUDY    30  20  66 N13       30.10F WCI  20
DE KALB*       CLOUDY    28  19  66 N13       30.08F WCI  18
PERU*          MOCLDY    32  22  67 N14       30.10S WCI  22
$$

ILZ005-006-012>014-019>023-270800-
NORTHEAST ILLINOIS

CITY           SKY/WX    TMP DP  RH WIND       PRES   REMARKS
CHICAGO-OHARE  MOCLDY    31  18  58 N9        30.06F WCI  23
CHICAGO-MIDWAY LGT SNOW  32  22  66 N13       30.07S FOG     WCI  22
AURORA         CLOUDY    31  17  56 N13       30.08S WCI  21
LANSING*       FLURRIES  31  24  74 N9        30.06S WCI  23
JOLIET*        CLOUDY    33  17  51 N8        30.07S WCI  26
WAUKEGAN       LGT SNOW  26  25  96 N9        30.08S FOG     WCI  17
DUPAGE AIRPORT CLOUDY    30  17  58 NW8       30.06F WCI  22
KANKAKEE*      MOCLDY    32  27  82 N6        30.06S WCI  27
WHEELING       FLURRIES  29  24  82 N10       30.09S WCI  20
MORRIS*        CLOUDY    32  21  64 N6        30.06F WCI  26
ROMEOVILLE*    CLOUDY    32  16  52 N10G16    30.06F WCI  23
NORTHERLY ISL    N/A     30  25  81 N16         N/A  WCI  19
$$

LMZ740>746-270800-
SOUTHERN LAKE MICHIGAN

STATION/POSITION SKY/WX   TEMP    WIND        PRES    VSBY  WAVE
                          AIR SEA DIR/SP/G                  HT/PER
                          (F)     (DEG/KT/KT) (MB)    (MI)  (FT/S)
HARRISON CRIB              29      20/ 19/ 22   N/A
BURNHAM HARBOR             29      10/ 15/ 19   N/A
CALUMET HARBOR             32     360/ 16/ 19 1016.9S
BURNS HARBOR               31      20/ 18/ 21 1017.9F
MICHIGAN CITY              28     360/ 20/ 24   N/A
$$

ILZ025>027-034>036-040-047-049-050-058-095>099-270800-
WEST-CENTRAL ILLINOIS

CITY           SKY/WX    TMP DP  RH WIND       PRES   REMARKS
QUINCY         CLOUDY    33  25  72 N12       30.11F WCI  24
GALESBURG*     PTCLDY    26  22  84 NW6       30.11S WCI  20
MACOMB*        CLOUDY    31  24  77 N13       30.14S WCI  21
JACKSONVILLE*  CLOUDY    36  26  68 N10       30.09S WCI  28
PITTSFIELD*    CLOUDY    36  25  66 N12G20    30.11S WCI  27
$$

ILZ028>032-037-038-041>044-048-051>054-059>061-270800-
CENTRAL ILLINOIS

CITY           SKY/WX    TMP DP  RH WIND       PRES   REMARKS
PONTIAC        CLOUDY    33  28  81 N9        30.06F WCI  25
BLOOMINGTON    MOCLDY    32  25  76 N14       30.06F WCI  22
DECATUR        PTCLDY    33  26  75 N13       30.05S WCI  24
PEORIA         PTCLDY    31  21  66 NW6       30.09F WCI  25
LACON*         MOCLDY    30  22  72 N5        30.08F WCI  25
LINCOLN*       MOCLDY    34  25  70 N8        30.08S WCI  27
SPRINGFIELD    MOCLDY    34  24  67 N10       30.08S WCI  26
TAYLORVILLE    MOCLDY    32  28  86 N14       30.05S WCI  22
$$

ILZ033-039-045-046-055>057-062-063-270800-
EAST-CENTRAL ILLINOIS

CITY           SKY/WX    TMP DP  RH WIND       PRES   REMARKS
CHAMPAIGN      PTCLDY    32  24  72 N13       30.02S WCI  22
DANVILLE*      MOCLDY    29  25  84 N3        30.00S
RANTOUL*       PTCLDY    33  26  75 N9        30.02F WCI  26
MATTOON        CLEAR     32  26  78 N9        30.02R WCI  24
PARIS*         CLEAR     32  27  79 N5        30.03S WCI  28
$$

ILZ079-100>102-270800-
SOUTHWEST ILLINOIS

CITY           SKY/WX    TMP DP  RH WIND       PRES   REMARKS
ALTON          MOCLDY    38  26  60 N9G20     30.06R WCI  32
BELLEVILLE     MOCLDY    40  29  67 N10       30.04R
CAHOKIA*       CLOUDY    41  29  62 N10       30.06R
SPARTA*        MOCLDY    35  31  85 CALM      30.04S
$$

ILZ064>066-069>071-074>076-080>082-084>086-088>090-092>094-270800-
SOUTH-CENTRAL ILLINOIS

CITY           SKY/WX    TMP DP  RH WIND       PRES   REMARKS
CARBONDALE     CLEAR     31  29  92 CALM      30.03F
CAIRO*         CLEAR     35  35  98 CALM      30.04F
EFFINGHAM*     MOCLDY    37  26  65 N7        30.05R WCI  31
MARION         CLEAR     34  32  93 CALM      30.04S
MT. VERNON     PTCLDY    28  25  86 CALM      30.03S
CENTRALIA*     MOCLDY    38  29  71 N9        30.03S WCI  31
SALEM*         PTCLDY    38  31  76 N5        30.03S WCI  34
METROPOLIS*    CLEAR     33  33 100 CALM      30.03F FOG
$$

ILZ067-068-072-073-078-083-087-091-270800-
SOUTHEAST ILLINOIS

CITY           SKY/WX    TMP DP  RH WIND       PRES   REMARKS
LAWRENCEVILLE  CLEAR     32  29  88 N5        30.02S WCI  27
FLORA*         CLEAR     35  29  78 CALM      30.03S
FAIRFIELD*     CLEAR     32  31  95 CALM      30.02S
HARRISBURG*    CLEAR     32  32 100 CALM      30.04F
ROBINSON*      CLEAR     31  31  99 N3        30.03S
CARMI*         CLEAR     35  34  96 W5        30.02S WCI  31
$$

ABBREVIATIONS USED IN REMARKS
   TC - TEMPERATURE IN CELSIUS
  WCI - WIND CHILL INDEX
   HX - HEAT INDEX
  VSB - VISIBILITY
$$



USA.gov is the U.S. government's official web portal to all federal, state and local government web resources and services.